NOAA 16 DEB, 41230

Orbit data source: Space-Track

NOAA 16 DEB, 41230 is space debris in SSO originally from a launch on Thu, 21 Sep 2000 UTC launched from the Air Force Western Test Range (AFWTR). Debris objects in space refer to the collection of defunct objects orbiting the Earth. Examples of debris include non-operational satellites, rocket bodies, and fragments generated from explosions, collisions, or faulty payload assembly.

Loading next visibility...
Identifier
41230, 2000-055EK
Orbit
SSO
Country
Flag of USUS
Related business
Manufacturer
Unknown
Mission
Spacecraft
Bus & Motor
Unknown
Mass
Unknown
Launch date (UTC)
2000-09-21 (25 years ago)
Launch vehicle
Unknown
Launch site
Air Force Western Test Range (AFWTR)
Object type
Payload
Rocket body
Debris
Shape & HBR
Unknown shape, 0.1 m
Radar Cross Section
Small (<0.1 m²)

Expand to show TLE details & history
Last TLE update: 3 days ago

TLE from 3 days ago
0 NOAA 16 DEB
1 41230U 00055EK  25304.82994284  .00009771  00000-0  25968-2 0  9996
2 41230  99.0063 155.5556 0030770  67.8865 292.5588 14.48523946514834
Epoch: 2025-10-31T19:55Z
TLE epoch observation values (Epoch: 2025-10-31T19:55:07.061Z)
Latitude
-0.00002°
Longitude
176.40743°
Altitude
725.082 km
Speed
7.497 km/s
True Right ascension
10h 22m 13s
True Declination
0° 00' 00"
Sunlit
Object was in daylight at epoch
Visualization orbit readout
Latitude
Unknown
Longitude
Unknown
Altitude
Unknown
Speed
Unknown
Apparent Right ascension
Unknown
Apparent Declination
Unknown
Sunlit
N/A
Visualization observer readout
Local Sidereal Time
07:40:20
Azimuth
Unknown
Elevation
Unknown
Doppler factor
Unknown
Orbital elements
Apogee altitude
749.473 km
Perigee altitude
705.744 km
Semi-major axis
7,105.746 km
Eccentricity
0.00308
Inclination
99.0063°
RAAN
155.5556°
Arg. of periapsis
67.8865°
True anomaly
292.2327°
Mean anomaly
292.5588°
Eccentric anomaly
292.3958°
Mean motion
3.6235 °/min
Orbital period
99.35 mins
BSTAR
0.0025968
Loading maneuver chart data...
Computing Atmospheric mass density...
Loading historical data...
Loading historical data...
Loading historical data...
Loading historical data...
Loading historical data...
Loading historical data...
Loading historical data...

Documentation

Showing up to 5 results
|